Change the Weather History Date:

Thursday, January 9, 2014

  Actual Average (LFSI) Record (LFSI)
Temperature  
Mean Temperature 48 °F -  
Max Temperature 53 °F 42 °F 60 °F (1998)
Min Temperature 42 °F 32 °F 15 °F (2009)
Degree Days  
Heating Degree Days 16    
Moisture  
Dew Point 45 °F    
Average Humidity 81    
Maximum Humidity 94    
Minimum Humidity 69    
Precipitation  
Precipitation 0.02 in - - ()
Sea Level Pressure  
Sea Level Pressure 29.90 in    
Wind  
Wind Speed 10 mph ()    
Max Wind Speed 20 mph    
Max Gust Speed 33 mph    
Visibility 8.1 miles    
Events Rain    
Averages and records for this station are not official NWS values.
T = Trace of Precipitation, MM = Missing Value Source: Averaged Metar Reports

Daily Weather History Graph

Daily Weather History Graph

Search for Another Location

Airport or City:

Trip Planner

Search our weather history database for the weather conditions in past years. The results will help you decide how hot, cold, wet, or windy it might be!

Date:

Astronomy

Jan. 09, 2014 Rise Set
Actual Time 8:36 AM CET 5:04 PM CET
Civil Twilight 7:59 AM CET 5:41 PM CET
Nautical Twilight 7:19 AM CET 6:21 PM CET
Astronomical Twilight 6:41 AM CET 7:00 PM CET
Moon 12:35 PM CET (1/9) 2:12 AM CET (1/9)
Length of Visible Light 9h 41m
Length of Day
8h 28m
Waxing Gibbous, 63% of the Moon is Illuminated
Jan 9
Waxing Gibbous
Jan 16
Full
Jan 24
Last Quarter
Jan 30
New
Feb 6
First Quarter

Hourly Weather History & Observations

Time (CET) Temp. Windchill Dew Point Humidity Pressure Visibility Wind Dir Wind Speed Gust Speed Precip Events Conditions
12:00 AM 51 °F - 48 °F 86% 30.00 in 12 mi SSE 11.5 mph - -   Clear
12:00 AM 51.8 °F - 48.2 °F 88% 29.98 in 6.2 mi SSE 11.5 mph - N/A   Unknown
12:30 AM 51.8 °F - 48.2 °F 88% 29.98 in 6.2 mi SSE 11.5 mph - N/A   Unknown
1:00 AM 53 °F - 47 °F 75% 29.97 in 12 mi SSE 9.2 mph - -   Clear
1:00 AM 53.6 °F - 48.2 °F 82% 29.95 in 6.2 mi SSE 9.2 mph 20.7 mph N/A   Unknown
1:30 AM 50.0 °F - 48.2 °F 94% 29.95 in 6.2 mi East 11.5 mph - N/A   Unknown
2:00 AM 50 °F - 47 °F 86% 29.96 in 12 mi East 9.2 mph - -   Clear
2:00 AM 50.0 °F - 46.4 °F 87% 29.95 in 6.2 mi East 9.2 mph - N/A   Unknown
2:30 AM 50.0 °F - 46.4 °F 87% 29.95 in 6.2 mi ESE 4.6 mph - N/A   Unknown
3:00 AM 51 °F - 47 °F 83% 29.95 in 12 mi SE 4.6 mph - -   Clear
3:00 AM 50.0 °F - 48.2 °F 94% 29.92 in 6.2 mi SE 4.6 mph - N/A   Unknown
3:30 AM 50.0 °F - 46.4 °F 87% 29.92 in 6.2 mi East 6.9 mph - N/A   Unknown
4:00 AM 49 °F - 47 °F 88% 29.93 in 12 mi SE 6.9 mph - -   Clear
4:00 AM 50.0 °F - 46.4 °F 87% 29.92 in 6.2 mi SE 6.9 mph - N/A   Unknown
4:30 AM 51.8 °F - 46.4 °F 82% 29.92 in 6.2 mi South 9.2 mph - N/A   Unknown
5:00 AM 51 °F - 46 °F 78% 29.91 in 12 mi South 8.1 mph - -   Clear
5:00 AM 51.8 °F - 46.4 °F 82% 29.89 in 6.2 mi South 8.1 mph - N/A   Unknown
5:30 AM 50.0 °F - 46.4 °F 87% 29.89 in 6.2 mi South 6.9 mph - N/A   Unknown
6:00 AM 50 °F - 46 °F 80% 29.89 in 12 mi SSW 10.4 mph - -   Clear
6:00 AM 50.0 °F - 46.4 °F 87% 29.86 in 6.2 mi SSW 10.4 mph - N/A   Unknown
6:30 AM 50.0 °F - 44.6 °F 82% 29.86 in 6.2 mi South 11.5 mph - N/A   Unknown
7:00 AM 51 °F - 46 °F 76% 29.88 in 12 mi South 11.5 mph - -   Clear
7:00 AM 50.0 °F - 46.4 °F 87% 29.86 in 6.2 mi South 11.5 mph - N/A   Unknown
7:30 AM 51.8 °F - 44.6 °F 76% 29.86 in 6.2 mi SSW 15.0 mph - N/A   Unknown
8:00 AM 51 °F - 45 °F 72% 29.89 in 12 mi SSW 8.1 mph - -   Clear
8:00 AM 50.0 °F - 44.6 °F 82% 29.86 in 6.2 mi SSW 8.1 mph - N/A   Unknown
8:30 AM 50.0 °F - 44.6 °F 82% 29.86 in 6.2 mi SSE 5.8 mph - N/A   Unknown
9:00 AM 49 °F - 45 °F 81% 29.89 in 12 mi SE 8.1 mph - -   Clear
9:00 AM 50.0 °F - 44.6 °F 82% 29.86 in 6.2 mi SE 8.1 mph - N/A   Unknown
9:30 AM 50.0 °F - 46.4 °F 87% 29.86 in 6.2 mi South 8.1 mph - N/A   Overcast
10:00 AM 51 °F - 46 °F 77% 29.88 in 12 mi SSW 10.4 mph - - Rain Light Rain
10:30 AM 51.8 °F - 46.4 °F 82% 29.86 in 6.2 mi SSW 10.4 mph - N/A   Unknown
11:00 AM 52 °F - 47 °F 76% 29.88 in 12 mi SSW 10.4 mph - -   Clear
11:00 AM 51.8 °F - 46.4 °F 82% 29.86 in 6.2 mi SSW 10.4 mph - N/A   Unknown
11:30 AM 51.8 °F - 46.4 °F 82% 29.86 in 6.2 mi SSW 9.2 mph - N/A   Overcast
12:00 PM 53 °F - 47 °F 74% 29.86 in 12 mi SSW 12.7 mph - -   Clear
12:00 PM 53.6 °F - 46.4 °F 77% 29.86 in 6.2 mi SSW 12.7 mph - N/A   Overcast
12:30 PM 53.6 °F - 46.4 °F 77% 29.83 in 6.2 mi SW 12.7 mph - N/A   Overcast
1:00 PM 53 °F - 47 °F 72% 29.85 in 12 mi SW 16.1 mph - -   Clear
1:00 PM 53.6 °F - 46.4 °F 77% 29.83 in 6.2 mi SW 16.1 mph - N/A   Overcast
1:30 PM 53.6 °F - 46.4 °F 77% 29.83 in 6.2 mi SW 18.4 mph - N/A   Overcast
2:00 PM 53 °F - 46 °F 69% 29.85 in 12 mi WSW 19.6 mph - -   Clear
2:00 PM 53.6 °F - 46.4 °F 77% 29.83 in 6.2 mi WSW 19.6 mph - N/A   Mostly Cloudy
2:30 PM 51.8 °F - 46.4 °F 82% 29.83 in 6.2 mi WSW 16.1 mph - N/A Rain Light Rain
3:00 PM 51 °F - 46 °F 75% 29.85 in 12 mi WSW 13.8 mph - - Rain Light Drizzle
3:00 PM 50.0 °F - 46.4 °F 87% 29.83 in 6.2 mi WSW 13.8 mph - N/A   Light Drizzle
3:30 PM 50.0 °F - 42.8 °F 76% 29.86 in 6.2 mi SW 15.0 mph - N/A   Overcast
4:00 PM 50 °F - 43 °F 71% 29.88 in 12 mi WSW 16.1 mph - -   Clear
4:00 PM 50.0 °F - 42.8 °F 76% 29.86 in 6.2 mi WSW 16.1 mph - N/A   Unknown
4:30 PM 50.0 °F - 44.6 °F 82% 29.86 in 6.2 mi WSW 13.8 mph - N/A   Mostly Cloudy
5:00 PM 50 °F - 44 °F 71% 29.90 in 12 mi WSW 17.3 mph - -   Clear
5:00 PM 50.0 °F - 42.8 °F 76% 29.89 in 6.2 mi WSW 17.3 mph 33.4 mph N/A   Overcast
5:30 PM 48.2 °F - 44.6 °F 87% 29.89 in 6.2 mi West 12.7 mph - N/A   Overcast
6:00 PM 49 °F - 44 °F 77% 29.92 in 12 mi West 12.7 mph - -   Clear
6:00 PM 48.2 °F - 44.6 °F 87% 29.92 in 6.2 mi West 12.7 mph - N/A   Overcast
6:30 PM 48.2 °F - 42.8 °F 82% 29.92 in 6.2 mi West 9.2 mph - N/A   Overcast
7:00 PM 48 °F - 43 °F 75% 29.95 in 12 mi West 11.5 mph - -   Clear
7:00 PM 48.2 °F - 42.8 °F 82% 29.95 in 6.2 mi West 11.5 mph - N/A   Mostly Cloudy
7:30 PM 46.4 °F 41.5 °F 42.8 °F 87% 29.95 in 6.2 mi West 10.4 mph - N/A   Unknown
8:00 PM 47 °F - 42 °F 76% 29.98 in 12 mi West 9.2 mph - -   Clear
8:00 PM 46.4 °F 41.9 °F 42.8 °F 87% 29.95 in 6.2 mi West 9.2 mph - N/A   Mostly Cloudy
8:30 PM 46.4 °F 42.4 °F 42.8 °F 87% 29.98 in 6.2 mi West 8.1 mph - N/A   Overcast
9:00 PM 46 °F - 41 °F 77% 30.00 in 12 mi West 9.2 mph - -   Clear
9:00 PM 46.4 °F 41.9 °F 41.0 °F 81% 29.98 in 6.2 mi West 9.2 mph - N/A   Mostly Cloudy
10:00 PM 44.6 °F 41.4 °F 41.0 °F 87% 30.01 in 6.2 mi West 5.8 mph - N/A   Unknown
10:30 PM 44.6 °F 42.2 °F 39.2 °F 81% 30.01 in 6.2 mi West 4.6 mph - N/A   Partly Cloudy
11:00 PM 42.8 °F 41.1 °F 39.2 °F 87% 30.01 in 6.2 mi WSW 3.5 mph - N/A   Mostly Cloudy